Tracking 25734 objects as of 29-May-2022
HD Live streaming from Space Station
objects crossing your sky now

CZ-4B DEB

Track CZ-4B DEB now!
10-day predictions


NORAD ID: 29216
Int'l Code: 2002-024G
Perigee: 845.0 km
Apogee: 1,185.2 km
Inclination: 98.9 °
Period: 105.3 minutes
Semi major axis: 7386 km
RCS: 0.0014 m2 (small)
Launch date: May 15, 2002
Source: People's Republic of China (PRC)
Launch site: Taiyaun Space Center, China (TSC)

Note: This is SATELLITE DEBRIS
aabbcc
Your satellite tracking list
Your tracking list is empty




NASA's NSSDC Master Catalog

Two Line Element Set (TLE):
1 29216U 02024G   22148.51795831  .00000290  00000-0  32339-3 0  9998
2 29216  98.8627  34.9241 0230305  45.7025 316.2759 13.67668160496939
Source of the keplerian elements: AFSPC